Regional Weather Roundup
Issued by NWS Lake Charles, LA

Home | Current Version | Previous Version | Text Only | Print | Product List | Glossary On
Versions: 1 2 3 4 5 6 7 8 9 10 11 12 13 14 15 16 17 18 19 20 21 22 23 24 25 26 27 28 29 30 31 32 33 34 35 36 37 38 39 40 41 42 43 44 45 46 47 48 49 50
819
ASUS44 KLCH 230510
RWRLCH
REGIONAL WEATHER ROUNDUP
NATIONAL WEATHER SERVICE LAKE CHARLES LA
1100 PM CST WED NOV 22 2017

Note: "fair" indicates few or no clouds below 12,000 feet with no
significant weather and/or obstructions to visibility.


ACROSS SOUTHEAST TEXAS

CITY           SKY/WX    TMP DP  RH WIND       PRES   REMARKS
BEAUMONT       PTCLDY    48  42  80 N7        30.21S
BEAUMONT CITY  FAIR      46  42  88 NW3       30.23S
ORANGE         CLEAR     48  44  84 NW3       30.23S
JASPER         CLEAR     42  40  94 CALM      30.26R
$$

ACROSS CENTRAL LOUISIANA

CITY           SKY/WX    TMP DP  RH WIND       PRES   REMARKS
LEESVILLE      NOT AVBL
FULLERTON      FAIR      44  36  73 CALM      30.20R
ALEXANDRIA INT CLEAR     42  32  67 NE3       30.22R
ESLER FIELD    CLEAR     38  32  79 CALM      30.23S
DERIDDER       FAIR      40  39  96 CALM      30.24R
OAKDALE        CLEAR     40  36  86 N5        30.22S
OPELOUSAS      FAIR      44  31  60 NE7       30.20F
$$

ACROSS SOUTHWEST AND SOUTH CENTRAL LOUISIANA

CITY           SKY/WX    TMP DP  RH WIND       PRES   REMARKS
SULPHUR        CLEAR     46  42  85 CALM      30.21S
LAKE CHARLES   CLEAR     50  40  68 NE7       30.19F
CHENNAULT INT  CLEAR     46  40  78 N6        30.20F
CAMERON PHI    CLEAR     54  41  62 N10       30.20S
DEQUINCY       FAIR      41  40  95 NW5       30.22S
JENNINGS       FAIR      46  37  69 NE7       30.20F
LAFAYETTE      CLEAR     47  32  56 NE10      30.20S
NEW IBERIA     PTCLDY    47  32  56 N12       30.19S
ABBEVILLE      FAIR      46  33  62 N7        30.19F
PATTERSON      CLEAR     49  38  65 N8        30.16F
SALT POINT       N/A      1  32 100 N7        30.15S WCI -12
$$

SELECTED SITES ACROSS THE REGION

CITY           SKY/WX    TMP DP  RH WIND       PRES   REMARKS
HOUSTON BUSH   CLEAR     51  38  60 NW7       30.25S
HOUSTON HOBBY  CLEAR     54  40  59 N10       30.24S
GALVESTON      CLEAR     60  49  66 N9        30.23S
COLLEGE STAT   CLEAR     43  31  62 N6        30.27F
CONROE         CLEAR     42  39  89 N5        30.25F
HUNTSVILLE     CLEAR     44  35  70 N3        30.27R
LUFKIN         CLEAR     42  39  89 CALM      30.25S
SHREVEPORT     CLEAR     39  32  76 CALM      30.24F
MONROE         CLEAR     35  27  72 NE7       30.25F WCI  29
NATCHEZ MS     CLEAR     36  32  85 CALM      30.23S
BATON ROUGE    CLEAR     45  32  60 N9        30.19S
N.O. INTL ARPT PTCLDY    54  42  64 N8        30.14S
SLIDELL        CLEAR     48  38  68 N7        30.13S
$$

MARINE REPORTS

STATION/POSITION TIME  SKY/WX   TEMP    WIND        PRES    VSBY
                                AIR SEA DIR/SP/G
                 (UTC)          (F)     (DEG/KT/KT) (MB)    (MI)
BUOY 30 S HIGH I 0350            61 69   20/ 16/ 19 1022.6
WVE H/P(F/S)=  3/ 5

SEA RIM ST PARK  0500            50     340/  8/  8 1023.4S
PORT ARTHUR      0448            54 65  360/  7/  8 1023.0F
SABINE PASS N    0448            55 65   10/  8/  9 1024.4F
TEXAS POINT      NOT AVBL
CALCASIEU PASS   0448            54 63   30/  7/  8 1021.3F
LK CHARLES BEACH 0448            51 66              1022.1F
MARSH ISLAND     0400            56                   N/A
FRESH WATER LOCK 0448            51 63   10/ 12/ 15 1021.9S
AMERADA PASS     0448            51 60  330/  5/ 10 1020.6S
$$




USA.gov is the U.S. government's official web portal to all federal, state and local government web resources and services.